Weather History for Fort Sill, OK

Change the Weather History Date:

Wednesday, October 17, 2012

  Actual Average Record
Temperature  
Mean Temperature 68 °F -  
Max Temperature 79 °F 75 °F 98 °F (1972)
Min Temperature 52 °F 48 °F 35 °F (1976)
Cooling Degree Days 2    
Growing Degree Days 18 (Base 50)    
Moisture  
Dew Point 47 °F    
Average Humidity 54    
Maximum Humidity 90    
Minimum Humidity 24    
Precipitation  
Precipitation 0.00 in - - ()
Sea Level Pressure  
Sea Level Pressure 29.60 in    
Wind  
Wind Speed 12 mph (NNW)    
Max Wind Speed 26 mph    
Max Gust Speed 36 mph    
Visibility 10 miles    
Events      
Averages and records for this station are not official NWS values.
T = Trace of Precipitation, MM = Missing Value Source: NWS Daily Summary

Daily Weather History Graph

Daily Weather History Graph

Search for Another Location

Airport:

Trip Planner

Search our weather history database for the weather conditions in past years. The results will help you decide how hot, cold, wet, or windy it might be!

Date:

Astronomy

Oct. 17, 2012 Rise Set
Actual Time 7:41 AM CDT 6:55 PM CDT
Civil Twilight 7:15 AM CDT 7:21 PM CDT
Nautical Twilight 6:46 AM CDT 7:50 PM CDT
Astronomical Twilight 6:17 AM CDT 8:19 PM CDT
Moon 10:09 AM CDT (10/17) 8:41 PM CDT (10/17)
Length of Visible Light 12h 05m
Length of Day
11h 14m
Waxing Crescent, 7% of the Moon is Illuminated
Oct 17
Waxing Crescent
Oct 21
First Quarter
Oct 29
Full
Nov 6
Last Quarter
Nov 13
New

Hourly Weather History & Observations

Time (CDT) Temp. Dew Point Humidity Pressure Visibility Wind Dir Wind Speed Gust Speed Precip Events Conditions
12:55 AM 62.8 °F 58.6 °F 86% 29.51 in 10.0 mi South 8.1 mph - N/A   Clear
1:55 AM 61.7 °F 58.5 °F 89% 29.51 in 10.0 mi SSE 6.9 mph - N/A   Clear
2:55 AM 62.6 °F 59.4 °F 89% 29.48 in 10.0 mi South 9.2 mph - N/A   Clear
3:55 AM 63.3 °F 59.7 °F 88% 29.46 in 10.0 mi South 11.5 mph - N/A   Clear
4:55 AM 62.8 °F 59.9 °F 90% 29.43 in 10.0 mi South 11.5 mph - N/A   Clear
5:55 AM 62.1 °F 59.2 °F 90% 29.43 in 10.0 mi SSW 8.1 mph - N/A   Clear
6:55 AM 63.1 °F 58.6 °F 85% 29.44 in 10.0 mi SW 4.6 mph - N/A   Clear
7:55 AM 62.1 °F 57.6 °F 85% 29.44 in 10.0 mi WSW 8.1 mph - N/A   Clear
8:55 AM 64.4 °F 55.2 °F 72% 29.47 in 10.0 mi WNW 6.9 mph - N/A   Clear
9:55 AM 71.2 °F 49.5 °F 46% 29.49 in 10.0 mi North 21.9 mph 32.2 mph N/A   Clear
10:55 AM 74.1 °F 51.3 °F 45% 29.51 in 10.0 mi North 24.2 mph 33.4 mph N/A   Clear
11:55 AM 76.6 °F 50.0 °F 39% 29.56 in 10.0 mi North 26.5 mph 35.7 mph N/A   Clear
12:55 PM 78.4 °F 46.8 °F 33% 29.61 in 10.0 mi NNW 23.0 mph 35.7 mph N/A   Clear
1:55 PM 78.4 °F 42.6 °F 28% 29.62 in 10.0 mi North 24.2 mph 32.2 mph N/A   Clear
2:55 PM 78.8 °F 40.6 °F 26% 29.63 in 10.0 mi North 20.7 mph 28.8 mph N/A   Clear
3:55 PM 77.4 °F 42.3 °F 29% 29.65 in 10.0 mi NNW 15.0 mph 26.5 mph N/A   Clear
4:55 PM 77.0 °F 39.6 °F 26% 29.68 in 10.0 mi North 16.1 mph - N/A   Clear
5:55 PM 75.0 °F 35.4 °F 24% 29.70 in 10.0 mi North 9.2 mph - N/A   Clear
6:55 PM 70.3 °F 32.2 °F 24% 29.73 in 10.0 mi North 10.4 mph - N/A   Clear
7:55 PM 63.0 °F 33.8 °F 34% 29.75 in 10.0 mi North 8.1 mph - N/A   Clear
8:55 PM 61.9 °F 35.4 °F 37% 29.78 in 10.0 mi North 8.1 mph - N/A   Clear
9:55 PM 61.2 °F 31.8 °F 33% 29.81 in 10.0 mi North 8.1 mph - N/A   Clear
10:55 PM 57.2 °F 32.9 °F 40% 29.84 in 10.0 mi NNE 9.2 mph - N/A   Clear
11:55 PM 52.2 °F 34.9 °F 52% 29.84 in 10.0 mi North 9.2 mph - N/A   Clear